National Weather Service United States Department of Commerce

Latest Hourly Weather Roundup

TOPSWRTT 000
TTAA00 KICT 291703

Wichita AWIPS Roundup
National Weather Service Wichita KS
1200 PM CDT WED JUN 29 2016

....Central Kansas....
  
CITY           SKY/WX    TMP DP  RH WIND       PRES   REMARKS
RUSSELL        SUNNY     81  64  56 NW12      30.08S HX  82           
SALINA         SUNNY     85  70  60 VRB3      30.06F HX  89           
GREAT BEND     SUNNY     82  59  44 NW7       30.09S HX  82           
ELLSWORTH      NOT AVBL                                               
MCPHERSON      SUNNY     84  66  54 S3        30.06F HX  86           
HAYS           SUNNY     81  57  44 NW9       30.11S HX  81           

....South Central Kansas....
  
CITY           SKY/WX    TMP DP  RH WIND       PRES   REMARKS
HUTCHINSON     SUNNY     87  67  51 NE5       30.06F HX  90           
NEWTON         NOT AVBL                                               
KINGMAN        SUNNY     86  70  58 N5        30.06F HX  90           
WICHITA (ICT)  MOSUNNY   86  64  47 CALM      30.06S HX  87           
JABARA ARPT    PTSUNNY   85  66  53 E5        30.06F HX  87           
MCCONNELL AFB  MOSUNNY   85  64  48 CALM      30.06F HX  86           
BENTON         FAIR      83  65  54 CALM      30.07S HX  85           
EL DORADO      FAIR      88  68  51 CALM      30.07S HX  91           
AUGUSTA        FAIR      84  64  51 SE5       30.06F HX  86           
HARPER           N/A     86  68  54 CALM      30.08F HX  89           
WELLINGTON     SUNNY     84  66  54 S5        30.05F HX  86           
WINFIELD       MOSUNNY   85  68  56 VRB7      30.06F HX  88           
 
....Southeast Kansas....
  
CITY           SKY/WX    TMP DP  RH WIND       PRES   REMARKS
EUREKA         NOT AVBL                                               
IOLA           FAIR      84  65  51 SE5       30.10S HX  86           
CHANUTE        MOSUNNY   85  69  58 S9        30.07F HX  89           
PARSONS        MOSUNNY   87  68  52 VRB5      30.08F HX  90           
COFFEYVILLE    MOSUNNY   89  67  47 S9        30.06F HX  92           
INDEPENDENCE   MOSUNNY   88  61  40 S12       30.06F HX  88           
FORT SCOTT     MOSUNNY   84  70  61 E8        30.08F HX  88           
PITTSBURG      MOSUNNY   84  70  63 S6        30.08S HX  88           

....Western Kansas....
  
CITY           SKY/WX    TMP DP  RH WIND       PRES   REMARKS
GOODLAND       SUNNY     80  57  45 S6        30.15F HX  80           
HILL CITY      MOSUNNY   79  61  53 VRB6      30.13F HX  80           
LIBERAL        SUNNY     79  64  61 SW12      30.14S HX  81           
GARDEN CITY    SUNNY     79  64  60 W10       30.12F HX  81           
DODGE CITY     SUNNY     81  59  47 CALM      30.12S HX  81           
PRATT          CLOUDY    80  61  53 NW7       30.10R HX  81           
MEDICINE LODGE   N/A     85  67  54 E9        30.06S HX  87           

....Northeast Kansas....
  
CITY           SKY/WX    TMP DP  RH WIND       PRES   REMARKS
CONCORDIA      PTSUNNY   78  69  73 E14G20    30.07S HX  80           
TOPEKA         SUNNY     84  68  58 SE8       30.08R HX  87           
MANHATTAN      CLOUDY    84  67  56 S10       30.06R HX  86           
LAWRENCE       MOSUNNY   83  67  58 SE10      30.08F HX  85           
OLATHE         MOSUNNY   79  65  62 S13       30.10F HX  81           
EMPORIA        MOSUNNY   82  67  60 SE8       30.08S HX  84           

....Oklahoma....
  
CITY           SKY/WX    TMP DP  RH WIND       PRES   REMARKS
GAGE           MOSUNNY   85  63  47 W13       30.04S HX  86           
PONCA CITY     PTSUNNY   86  68  54 SW8       30.05F HX  89           
BARTLESVILLE   MOSUNNY   92  66  42 VRB5      30.06F HX  94           
TULSA          PTSUNNY   90  65  43 VRB7      30.04F HX  92           
OKLAHOMA CITY  CLOUDY    86  63  45 SW9       30.08F HX  87           

Note: "fair" indicates few or no clouds below 12,000 feet with no
significant weather and/or obstructions to visibility.